Previsão horária em Celinnyy

Hoje, 27 Julho, Terça-feira

Tempo Temperatura Precipitação Vento Pressão Humidade
00:00 +18°C° 0 mm 3 m/s 737 mmHg 47%
01:00 +18°C° 0 mm 3 m/s 736 mmHg 48%
02:00 +18°C° 0 mm 2 m/s 736 mmHg 48%
03:00 +18°C° 0 mm 2 m/s 736 mmHg 48%
04:00 +18°C° 0 mm 2 m/s 736 mmHg 48%
05:00 +18°C° 0 mm 2 m/s 736 mmHg 48%
06:00 +18°C° 0 mm 3 m/s 736 mmHg 48%
07:00 +18°C° 0 mm 3 m/s 736 mmHg 48%
08:00 +20°C° 0 mm 3 m/s 736 mmHg 45%
09:00 +21°C° 0 mm 3 m/s 736 mmHg 42%
10:00 +23°C° 0 mm 2 m/s 736 mmHg 39%
11:00 +24°C° 0 mm 2 m/s 736 mmHg 37%
12:00 +25°C° 0 mm 2 m/s 736 mmHg 35%
13:00 +26°C° 0 mm 1 m/s 735 mmHg 33%
14:00 +26°C° 0 mm 2 m/s 735 mmHg 32%
15:00 +26°C° 0 mm 2 m/s 735 mmHg 31%
16:00 +26°C° 0 mm 2 m/s 734 mmHg 29%
17:00 +26°C° 0 mm 3 m/s 734 mmHg 31%
18:00 +25°C° 0 mm 3 m/s 734 mmHg 32%
19:00 +24°C° 0 mm 3 m/s 734 mmHg 34%
20:00 +23°C° 0 mm 2 m/s 734 mmHg 35%
21:00 +21°C° 0 mm 1 m/s 734 mmHg 37%
22:00 +20°C° 0 mm 1 m/s 734 mmHg 38%
23:00 +20°C° 0 mm 1 m/s 734 mmHg 39%

Amanhã, 28 Julho, Quarta-feira

Tempo Temperatura Precipitação Vento Pressão Humidade
00:00 +19°C° 0 mm 1 m/s 734 mmHg 40%
01:00 +18°C° 0 mm 2 m/s 734 mmHg 41%
02:00 +17°C° 0 mm 2 m/s 733 mmHg 43%
03:00 +17°C° 0 mm 2 m/s 733 mmHg 45%
04:00 +17°C° 0 mm 2 m/s 733 mmHg 47%
05:00 +18°C° 0 mm 3 m/s 733 mmHg 45%
06:00 +19°C° 0 mm 3 m/s 733 mmHg 44%
07:00 +20°C° 0 mm 3 m/s 734 mmHg 43%
08:00 +22°C° 0 mm 3 m/s 733 mmHg 41%
09:00 +23°C° 0 mm 4 m/s 733 mmHg 38%
10:00 +26°C° 0 mm 5 m/s 733 mmHg 36%
11:00 +26°C° 0 mm 5 m/s 733 mmHg 36%
12:00 +26°C° 0 mm 5 m/s 733 mmHg 37%
13:00 +26°C° 0 mm 6 m/s 732 mmHg 37%
14:00 +25°C° 0 mm 5 m/s 732 mmHg 39%
15:00 +25°C° 0 mm 5 m/s 732 mmHg 42%
16:00 +23°C° 0 mm 4 m/s 732 mmHg 44%
17:00 +24°C° 0 mm 3 m/s 732 mmHg 44%
18:00 +24°C° 0 mm 2 m/s 732 mmHg 44%
19:00 +24°C° 0 mm 1 m/s 732 mmHg 44%
20:00 +22°C° 0 mm 1 m/s 732 mmHg 45%
21:00 +20°C° 0 mm 2 m/s 733 mmHg 47%
22:00 +19°C° 0 mm 2 m/s 733 mmHg 49%
23:00 +18°C° 0 mm 2 m/s 733 mmHg 50%

Depois de amanhã, 29 Julho, Quinta-feira

Tempo Temperatura Precipitação Vento Pressão Humidade
00:00 +17°C° 0 mm 2 m/s 733 mmHg 50%
01:00 +17°C° 0 mm 2 m/s 733 mmHg 51%
02:00 +16°C° 0 mm 2 m/s 733 mmHg 53%
03:00 +16°C° 0 mm 2 m/s 733 mmHg 55%
04:00 +15°C° 0 mm 2 m/s 733 mmHg 57%
05:00 +16°C° 0 mm 1 m/s 734 mmHg 53%
06:00 +19°C° 0 mm 1 m/s 734 mmHg 49%
07:00 +18°C° 0 mm 0 m/s 734 mmHg 44%
08:00 +22°C° 0 mm 1 m/s 734 mmHg 39%
09:00 +23°C° 0 mm 2 m/s 735 mmHg 33%
10:00 +25°C° 0 mm 2 m/s 735 mmHg 28%
11:00 +26°C° 0 mm 3 m/s 735 mmHg 26%
12:00 +26°C° 0 mm 3 m/s 735 mmHg 25%
13:00 +27°C° 0 mm 3 m/s 734 mmHg 23%
14:00 +27°C° 0 mm 3 m/s 734 mmHg 23%
15:00 +28°C° 0 mm 3 m/s 734 mmHg 22%
16:00 +28°C° 0 mm 3 m/s 734 mmHg 21%
17:00 +27°C° 0 mm 2 m/s 734 mmHg 24%
18:00 +26°C° 0 mm 2 m/s 734 mmHg 27%
19:00 +26°C° 0 mm 2 m/s 733 mmHg 30%
20:00 +25°C° 0 mm 2 m/s 734 mmHg 30%
21:00 +22°C° 0 mm 3 m/s 734 mmHg 31%
22:00 +21°C° 0 mm 4 m/s 734 mmHg 31%
23:00 +21°C° 0 mm 4 m/s 733 mmHg 32%

30 Julho, Sexta-feira

Tempo Temperatura Precipitação Vento Pressão Humidade
00:00 +21°C° 0 mm 4 m/s 733 mmHg 33%
01:00 +21°C° 0 mm 4 m/s 733 mmHg 34%
02:00 +21°C° 0 mm 4 m/s 733 mmHg 34%
03:00 +21°C° 0 mm 5 m/s 733 mmHg 34%
04:00 +21°C° 0 mm 5 m/s 733 mmHg 34%
05:00 +21°C° 0 mm 5 m/s 733 mmHg 34%
06:00 +22°C° 0 mm 6 m/s 733 mmHg 34%
07:00 +22°C° 0 mm 6 m/s 733 mmHg 34%
08:00 +24°C° 0 mm 7 m/s 733 mmHg 32%
09:00 +26°C° 0 mm 8 m/s 732 mmHg 31%
10:00 +28°C° 0 mm 8 m/s 732 mmHg 29%
11:00 +29°C° 0 mm 8 m/s 732 mmHg 28%
12:00 +31°C° 0 mm 8 m/s 732 mmHg 28%
13:00 +32°C° 0 mm 8 m/s 732 mmHg 28%
14:00 +33°C° 0 mm 8 m/s 731 mmHg 28%
15:00 +33°C° 0 mm 8 m/s 731 mmHg 28%
16:00 +33°C° 0 mm 8 m/s 731 mmHg 28%
17:00 +32°C° 0 mm 6 m/s 731 mmHg 33%
18:00 +30°C° 0 mm 5 m/s 731 mmHg 38%
19:00 +28°C° 0 mm 3 m/s 731 mmHg 43%
20:00 +27°C° 0 mm 3 m/s 731 mmHg 48%
21:00 +26°C° 0 mm 2 m/s 731 mmHg 52%
22:00 +25°C° 0 mm 1 m/s 731 mmHg 57%
23:00 +24°C° 0 mm 2 m/s 731 mmHg 58%

31 Julho, Sábado

Tempo Temperatura Precipitação Vento Pressão Humidade
00:00 +24°C° 0 mm 3 m/s 731 mmHg 59%
01:00 +24°C° 0 mm 3 m/s 731 mmHg 60%
02:00 +22°C° 0 mm 4 m/s 732 mmHg 62%
03:00 +22°C° 0 mm 4 m/s 732 mmHg 65%
04:00 +21°C° 0 mm 4 m/s 732 mmHg 67%
05:00 +22°C° 0 mm 4 m/s 732 mmHg 64%
06:00 +23°C° 0 mm 4 m/s 733 mmHg 62%
07:00 +25°C° 0 mm 3 m/s 733 mmHg 59%
08:00 +27°C° 0 mm 3 m/s 733 mmHg 54%
09:00 +28°C° 0 mm 3 m/s 733 mmHg 48%
10:00 +30°C° 0 mm 3 m/s 733 mmHg 43%
11:00 +31°C° 0 mm 3 m/s 733 mmHg 39%
12:00 +33°C° 0 mm 3 m/s 733 mmHg 35%
13:00 +34°C° 0 mm 3 m/s 733 mmHg 31%
14:00 +34°C° 0 mm 3 m/s 733 mmHg 28%
15:00 +35°C° 0 mm 3 m/s 732 mmHg 25%
16:00 +35°C° 0 mm 3 m/s 732 mmHg 22%
17:00 +34°C° 0 mm 3 m/s 732 mmHg 26%
18:00 +32°C° 0 mm 2 m/s 732 mmHg 29%
19:00 +30°C° 0 mm 2 m/s 732 mmHg 32%
20:00 +30°C° 0 mm 2 m/s 732 mmHg 34%
21:00 +29°C° 0 mm 3 m/s 732 mmHg 36%
22:00 +28°C° 0 mm 3 m/s 732 mmHg 38%
23:00 +27°C° 0.4 mm 3 m/s 732 mmHg 43%

1 Agosto, Domingo

Tempo Temperatura Precipitação Vento Pressão Humidade
00:00 +25°C° 0.4 mm 3 m/s 732 mmHg 49%
01:00 +24°C° 0.4 mm 3 m/s 732 mmHg 54%
02:00 +24°C° 0.1 mm 3 m/s 732 mmHg 58%
03:00 +22°C° 0.1 mm 3 m/s 732 mmHg 63%
04:00 +22°C° 0.1 mm 3 m/s 732 mmHg 67%
05:00 +22°C° 0 mm 3 m/s 733 mmHg 64%
06:00 +24°C° 0 mm 3 m/s 733 mmHg 61%
07:00 +25°C° 0 mm 3 m/s 733 mmHg 59%
08:00 +27°C° 0 mm 3 m/s 733 mmHg 54%
09:00 +28°C° 0 mm 3 m/s 733 mmHg 48%
10:00 +30°C° 0 mm 4 m/s 733 mmHg 43%
11:00 +32°C° 0 mm 4 m/s 734 mmHg 40%
12:00 +33°C° 0 mm 4 m/s 734 mmHg 37%
13:00 +34°C° 0 mm 5 m/s 734 mmHg 33%
14:00 +35°C° 0 mm 4 m/s 734 mmHg 32%
15:00 +35°C° 0 mm 4 m/s 733 mmHg 31%
16:00 +35°C° 0 mm 4 m/s 733 mmHg 30%
17:00 +34°C° 0 mm 3 m/s 733 mmHg 32%
18:00 +33°C° 0 mm 3 m/s 733 mmHg 35%
19:00 +31°C° 0 mm 2 m/s 733 mmHg 37%
20:00 +30°C° 0 mm 2 m/s 733 mmHg 39%
21:00 +29°C° 0 mm 3 m/s 734 mmHg 40%
22:00 +28°C° 0 mm 3 m/s 734 mmHg 42%
23:00 +27°C° 0 mm 3 m/s 734 mmHg 43%
Mostrar mais

Necessitamos do seu Consentimento

A Meteoprog e os seus Fornecedores de Serviços podem armazenar e aceder a dados pessoais como cookies, identificadores do dispositivo ou outras tecnologias semelhantes existentes no seu dispositivo e processar estes dados para personalizar conteúdos e anúncios, assim como funcionalidades nas redes sociais e análise de tráfego.

  • Armazenar e/ou aceder a informações no seu dispositivo

    Os cookies, identificadores do dispositivo ou outras informações podem ser armazenados ou acedidos no seu dispositivo, para os fins acima indicados.

  • Anúncios e conteúdos personalizados, medição de anúncios e conteúdos, dados sobre o público-alvo e desenvolvimento de produtos

    Os anúncios e os conteúdos podem ser personalizados com base num perfil. Podem ser adicionados dados adicionais para uma maior personalização dos anúncios e dos conteúdos. A eficácia dos anúncios e dos conteúdos pode ser medida. Podem ser obtidas informações sobre o público que visualizou os anúncios e os conteúdos. Estes dados podem ser usados para desenvolver ou melhorar sistemas, softwares ou a experiência do utilizador.

Ao clicar em "Eu concordo”, permitirá o uso de cookies, identificadores do dispositivo e web beacons mencionados ou outras tecnologias semelhantes. As configurações do navegador do seu dispositivo podem ser alteradas.

Para certos fins, podem ser invocados interesses legítimos ao invés de consentimento. Pode ler mais informação sobre este assunto na nossa Política de Privacidade e Cookies.